Easton, MD

3:03 PM EST on November 15, 2019 (GMT -0500)
Easton / Newnam

Weather History for KESN - September, 2019

Change the Weather History Date:

Friday, September 6, 2019

  Actual Average Record
Temperature  
Mean Temperature 66 °F -  
Max Temperature 70 °F 84 °F 97 °F (1954)
Min Temperature 62 °F 62 °F 46 °F (1949)
Cooling Degree Days 1    
Growing Degree Days 16 (Base 50)    
Moisture  
Dew Point 63 °F    
Average Humidity 84    
Maximum Humidity 94    
Minimum Humidity 77    
Precipitation  
Precipitation 0.00 in - - ()
Sea Level Pressure  
Sea Level Pressure 29.88 in    
Wind  
Wind Speed 11 mph (NNE)    
Max Wind Speed 20 mph    
Max Gust Speed 28 mph    
Visibility 10 miles    
Events      
Averages and records for this station are not official NWS values.
T = Trace of Precipitation, MM = Missing Value Source: NWS Daily Summary

Daily Weather History Graph

Daily Weather History Graph

Search for Another Location

Airport or City:

Astronomy

Sep. 06, 2019 Rise Set
Actual Time 6:37 AM EDT 7:27 PM EDT
Civil Twilight 6:10 AM EDT 7:54 PM EDT
Nautical Twilight 5:38 AM EDT 8:26 PM EDT
Astronomical Twilight 5:05 AM EDT 8:59 PM EDT
Moon 2:39 PM EDT (9/6) No Moon Set
Length of Visible Light 13h 43m
Length of Day
12h 49m
First Quarter, 55% of the Moon is Illuminated
Sep 6
First Quarter
Sep 14
Full
Sep 21
Last Quarter
Sep 28
New
Oct 5
First Quarter

Hourly Weather History & Observations

Time (EDT) Temp. Dew Point Humidity Pressure Visibility Wind Dir Wind Speed Gust Speed Precip Events Conditions
12:00 AM 70.2 °F 65.8 °F 86% 29.98 in 10.0 mi NE 10.4 mph - N/A   Clear
12:20 AM 70.0 °F 65.7 °F 86% 29.99 in 10.0 mi ENE 8.1 mph - N/A   Clear
12:40 AM 69.8 °F 65.7 °F 87% 29.98 in 10.0 mi NE 9.2 mph - N/A   Clear
1:00 AM 69.8 °F 64.6 °F 83% 29.98 in 10.0 mi NNE 9.2 mph - N/A   Clear
1:20 AM 69.8 °F 64.0 °F 82% 29.97 in 10.0 mi NE 9.2 mph - N/A   Mostly Cloudy
1:40 AM 69.6 °F 63.1 °F 80% 29.97 in 10.0 mi NE 10.4 mph - N/A   Scattered Clouds
2:00 AM 69.4 °F 62.2 °F 78% 29.97 in 10.0 mi NE 11.5 mph - N/A   Mostly Cloudy
2:20 AM 69.3 °F 61.9 °F 77% 29.95 in 10.0 mi NE 10.4 mph - N/A   Mostly Cloudy
2:40 AM 69.1 °F 61.7 °F 77% 29.96 in 10.0 mi NE 8.1 mph - N/A   Overcast
3:00 AM 69.1 °F 61.7 °F 77% 29.95 in 10.0 mi NNE 10.4 mph - N/A   Overcast
3:20 AM 69.1 °F 61.7 °F 77% 29.94 in 10.0 mi NNE 10.4 mph - N/A   Overcast
3:40 AM 69.1 °F 62.1 °F 78% 29.93 in 10.0 mi NNE 10.4 mph - N/A   Overcast
4:00 AM 68.9 °F 62.1 °F 79% 29.92 in 10.0 mi NE 12.7 mph 20.7 mph N/A   Overcast
4:20 AM 68.7 °F 62.4 °F 80% 29.91 in 10.0 mi NE 15.0 mph - N/A   Mostly Cloudy
4:40 AM 68.9 °F 62.1 °F 79% 29.90 in 10.0 mi NE 12.7 mph 19.6 mph N/A   Mostly Cloudy
5:00 AM 68.0 °F 62.4 °F 82% 29.90 in 10.0 mi NE 12.7 mph - N/A   Mostly Cloudy
5:20 AM 68.2 °F 62.1 °F 81% 29.89 in 10.0 mi NE 13.8 mph - N/A   Overcast
5:40 AM 68.4 °F 61.3 °F 78% 29.90 in 10.0 mi NE 15.0 mph 19.6 mph N/A   Overcast
5:59 AM 66.2 °F 62.6 °F 88% 29.88 in 10.0 mi NNE 12.7 mph - N/A   Overcast
6:57 AM 68.0 °F 62.6 °F 83% 29.88 in 10.0 mi NNE 15.0 mph 21.9 mph N/A   Overcast
7:50 AM 68.0 °F 62.6 °F 83% 29.86 in 10.0 mi NNE 16.1 mph 23.0 mph N/A   Overcast
8:47 AM 68.0 °F 62.6 °F 83% 29.84 in 10.0 mi North 12.7 mph 24.2 mph N/A   Overcast
9:51 AM 68.0 °F 64.4 °F 88% 29.82 in 10.0 mi NNE 17.3 mph 27.6 mph N/A   Overcast
10:50 AM 69.8 °F 64.4 °F 83% 29.82 in 10.0 mi North 15.0 mph 27.6 mph N/A   Overcast
11:51 AM 69.8 °F 64.4 °F 83% 29.82 in 10.0 mi North 15.0 mph 19.6 mph N/A   Overcast
12:45 PM 69.8 °F 64.4 °F 83% 29.79 in 10.0 mi North 19.6 mph 24.2 mph N/A   Overcast
1:52 PM 69.8 °F 64.4 °F 83% 29.77 in 7.0 mi North 15.0 mph 24.2 mph N/A   Overcast
2:59 PM 68.0 °F 64.4 °F 88% 29.74 in 10.0 mi North 13.8 mph 19.6 mph N/A   Overcast
3:50 PM 68.0 °F 62.6 °F 83% 29.75 in 10.0 mi North 16.1 mph 21.9 mph N/A   Overcast
4:50 PM 66.2 °F 62.6 °F 88% 29.78 in 5.0 mi NNW 13.8 mph 24.2 mph N/A   Drizzle
5:50 PM 66.2 °F 62.6 °F 88% 29.80 in 7.0 mi North 10.4 mph 18.4 mph N/A   Overcast
6:50 PM 66.2 °F 62.6 °F 88% 29.81 in 7.0 mi North 9.2 mph - N/A   Overcast
7:50 PM 66.2 °F 62.6 °F 88% 29.83 in 7.0 mi NNW 5.8 mph 16.1 mph N/A   Overcast
8:50 PM 64.4 °F 62.6 °F 94% 29.84 in 10.0 mi NNW 5.8 mph - N/A   Overcast
9:45 PM 64.4 °F 60.8 °F 88% 29.82 in 10.0 mi NNE 5.8 mph - N/A   Scattered Clouds
10:20 PM 63.7 °F 61.0 °F 91% 29.84 in 10.0 mi North 3.5 mph - N/A   Clear
10:40 PM 63.5 °F 60.6 °F 90% 29.84 in 10.0 mi North 3.5 mph - N/A   Scattered Clouds
11:00 PM 62.2 °F 59.9 °F 92% 29.84 in 10.0 mi North 4.6 mph - N/A   Scattered Clouds
11:20 PM 62.1 °F 59.4 °F 91% 29.83 in 10.0 mi North 4.6 mph - N/A   Scattered Clouds
11:40 PM 62.2 °F 59.0 °F 89% 29.84 in 10.0 mi North 4.6 mph - N/A   Clear